CFG4467 EDDF-LHBP

Flight info

Callsign CFG4467
Flight time N/A
Altitude 31000
Route SULUS7S SULUS Z650 VEMUT/N0437F350 DCT PEPIK DCT NIT/N0395F230 M748 ARFOX
Aircraft A319/M-SDE2FGHIJ1RWXY/HB1

Departure

Time 2026-05-05 14:56
Airport Frankfurt Main Airport (EDDF)

Arrival

Time N/A
Airport Budapest Liszt Ferenc International Airport (LHBP)
Time Latitude Longitude Altitude Speed Heading
2026-05-05 14:20 50.04977 8.59152 363 ft 0 kts 160°
2026-05-05 14:39 50.04991 8.59144 362 ft 4 kts 160°
2026-05-05 14:39 50.05012 8.59132 361 ft 3 kts 160°
2026-05-05 14:39 50.05033 8.59128 365 ft 4 kts 220°
2026-05-05 14:40 50.05045 8.59159 364 ft 4 kts 250°
2026-05-05 14:40 50.05047 8.59168 360 ft 1 kts 250°
2026-05-05 14:42 50.05047 8.59167 360 ft 0 kts 250°
2026-05-05 14:45 50.05042 8.59144 360 ft 5 kts 250°
2026-05-05 14:45 50.05023 8.59065 363 ft 11 kts 249°
2026-05-05 14:45 50.04990 8.58930 360 ft 15 kts 250°
2026-05-05 14:46 50.04952 8.58773 363 ft 16 kts 249°
2026-05-05 14:46 50.04912 8.58604 362 ft 18 kts 250°
2026-05-05 14:46 50.04863 8.58399 360 ft 22 kts 250°
2026-05-05 14:46 50.04807 8.58163 360 ft 24 kts 250°
2026-05-05 14:47 50.04748 8.57961 361 ft 20 kts 227°
2026-05-05 14:47 50.04676 8.57775 359 ft 20 kts 248°
2026-05-05 14:47 50.04627 8.57564 360 ft 22 kts 250°
2026-05-05 14:47 50.04566 8.57308 359 ft 28 kts 249°
2026-05-05 14:48 50.04498 8.57021 363 ft 28 kts 250°
2026-05-05 14:48 50.04431 8.56740 359 ft 28 kts 250°
2026-05-05 14:48 50.04360 8.56447 358 ft 28 kts 249°
2026-05-05 14:48 50.04298 8.56186 355 ft 26 kts 250°
2026-05-05 14:49 50.04235 8.55927 358 ft 26 kts 249°
2026-05-05 14:49 50.04171 8.55657 358 ft 27 kts 249°
2026-05-05 14:49 50.04107 8.55386 358 ft 26 kts 250°
2026-05-05 14:49 50.04045 8.55127 356 ft 25 kts 249°
2026-05-05 14:50 50.03983 8.54868 353 ft 26 kts 249°
2026-05-05 14:50 50.03917 8.54595 351 ft 27 kts 249°
2026-05-05 14:50 50.03843 8.54330 348 ft 26 kts 236°
2026-05-05 14:50 50.03764 8.54079 350 ft 26 kts 250°
2026-05-05 14:51 50.03700 8.53806 346 ft 27 kts 249°
2026-05-05 14:51 50.03632 8.53530 340 ft 28 kts 249°
2026-05-05 14:51 50.03564 8.53252 339 ft 28 kts 249°
2026-05-05 14:51 50.03495 8.52963 334 ft 29 kts 248°
2026-05-05 14:52 50.03433 8.52732 333 ft 16 kts 247°
2026-05-05 14:52 50.03377 8.52608 332 ft 15 kts 205°
2026-05-05 14:52 50.03243 8.52596 336 ft 42 kts 179°
2026-05-05 14:52 50.02615 8.52602 336 ft 129 kts 180°
2026-05-05 14:53 50.02318 8.52603 331 ft 149 kts 180°
2026-05-05 14:56 49.86478 8.80850 10727 ft 320 kts 119°
2026-05-05 14:57 49.84366 8.86731 12312 ft 337 kts 120°
2026-05-05 14:57 49.83219 8.89913 13277 ft 342 kts 120°
2026-05-05 14:57 49.82051 8.93135 14169 ft 346 kts 120°
2026-05-05 14:58 49.80889 8.96337 15013 ft 351 kts 121°
2026-05-05 14:58 49.79677 8.99662 15861 ft 356 kts 121°
2026-05-05 14:58 49.78455 9.03005 16690 ft 360 kts 121°
2026-05-05 14:58 49.77243 9.06313 17472 ft 364 kts 121°
2026-05-05 14:59 49.76158 9.09880 18252 ft 370 kts 111°
2026-05-05 14:59 49.75471 9.13762 19016 ft 376 kts 105°
2026-05-05 14:59 49.74854 9.17704 19768 ft 380 kts 105°
2026-05-05 14:59 49.74224 9.21679 20499 ft 384 kts 105°
2026-05-05 15:00 49.73574 9.25713 21204 ft 388 kts 105°
2026-05-05 15:00 49.73140 9.28379 21657 ft 391 kts 105°
2026-05-05 15:00 49.72236 9.33912 22560 ft 396 kts 105°
2026-05-05 15:00 49.71569 9.37981 23197 ft 400 kts 105°
2026-05-05 15:01 49.70881 9.42186 23813 ft 404 kts 105°
2026-05-05 15:01 49.70189 9.46401 24400 ft 408 kts 105°
2026-05-05 15:01 49.69491 9.50630 24963 ft 412 kts 106°
2026-05-05 15:01 49.68775 9.54942 25512 ft 415 kts 106°
2026-05-05 15:02 49.68054 9.59276 26037 ft 419 kts 106°
2026-05-05 15:02 49.67822 9.60719 26217 ft 420 kts 104°
2026-05-05 15:02 49.67440 9.68287 27048 ft 430 kts 87°
2026-05-05 15:02 49.67909 9.72861 27540 ft 436 kts 77°
2026-05-05 15:03 49.68725 9.77456 28038 ft 439 kts 76°
2026-05-05 15:03 49.69526 9.81963 28495 ft 443 kts 76°
2026-05-05 15:03 49.70339 9.86576 28956 ft 446 kts 76°
2026-05-05 15:03 49.71198 9.91196 29395 ft 450 kts 72°
2026-05-05 15:04 49.72441 9.95663 29808 ft 455 kts 63°
2026-05-05 15:04 49.74101 9.99782 30221 ft 460 kts 55°
2026-05-05 15:04 49.75978 10.03809 30610 ft 463 kts 55°
2026-05-05 15:04 49.77860 10.07862 30802 ft 464 kts 55°
2026-05-05 15:05 49.81496 10.15728 30832 ft 438 kts 55°
2026-05-05 15:05 49.83252 10.19547 30832 ft 435 kts 56°
2026-05-05 15:06 49.86747 10.27174 30831 ft 433 kts 56°
2026-05-05 15:06 49.89646 10.33505 30823 ft 433 kts 56°
2026-05-05 15:07 49.93691 10.42355 30823 ft 433 kts 56°
2026-05-05 15:07 49.97165 10.49989 30821 ft 433 kts 56°
2026-05-05 15:08 50.00628 10.57625 30818 ft 432 kts 56°
2026-05-05 15:08 50.03984 10.65376 30810 ft 431 kts 63°
2026-05-05 15:08 50.05124 10.69666 30803 ft 429 kts 75°
2026-05-05 15:09 50.05729 10.74137 30795 ft 427 kts 85°
2026-05-05 15:09 50.05798 10.78729 30790 ft 424 kts 96°
2026-05-05 15:09 50.05319 10.83234 30784 ft 421 kts 108°
2026-05-05 15:10 50.03508 10.91878 30783 ft 420 kts 111°
2026-05-05 15:10 50.02742 10.95493 30785 ft 421 kts 110°
2026-05-05 15:11 50.01723 11.00298 30787 ft 421 kts 110°
2026-05-05 15:11 49.99972 11.08538 30791 ft 421 kts 110°
2026-05-05 15:13 49.99152 11.12504 30817 ft 421 kts 110°
2026-05-05 15:13 49.98386 11.16127 30811 ft 421 kts 110°
2026-05-05 15:14 49.97483 11.20061 30802 ft 419 kts 111°
2026-05-05 15:14 49.95635 11.28555 30810 ft 417 kts 109°
2026-05-05 15:15 49.93862 11.37131 30814 ft 415 kts 109°
2026-05-05 15:15 49.92131 11.45671 30803 ft 415 kts 108°
2026-05-05 15:16 49.90567 11.54283 30787 ft 414 kts 107°
2026-05-05 15:16 49.89127 11.62381 30779 ft 414 kts 107°
2026-05-05 15:17 49.88550 11.65573 30774 ft 414 kts 107°
2026-05-05 15:17 49.87590 11.74340 30765 ft 415 kts 99°
2026-05-05 15:18 49.86805 11.83214 30757 ft 415 kts 99°
2026-05-05 15:18 49.86010 11.92069 30755 ft 415 kts 99°
2026-05-05 15:19 49.85209 12.00947 30751 ft 415 kts 99°
2026-05-05 15:19 49.84416 12.09789 30741 ft 415 kts 99°
2026-05-05 15:20 49.83611 12.18642 30739 ft 415 kts 99°
2026-05-05 15:20 49.82806 12.27452 30744 ft 415 kts 99°
2026-05-05 15:21 49.81990 12.36326 30743 ft 416 kts 99°
2026-05-05 15:21 49.81149 12.45160 30749 ft 415 kts 102°
2026-05-05 15:22 49.79575 12.53730 30756 ft 414 kts 108°
2026-05-05 15:22 49.77872 12.62262 30752 ft 415 kts 109°
2026-05-05 15:23 49.76474 12.69203 30750 ft 415 kts 109°
2026-05-05 15:23 49.75417 12.74453 30750 ft 415 kts 109°
2026-05-05 15:24 49.73718 12.82872 30750 ft 415 kts 109°
2026-05-05 15:24 49.71964 12.91524 30748 ft 415 kts 109°
2026-05-05 15:25 49.70230 13.00012 30746 ft 416 kts 109°
2026-05-05 15:25 49.68506 13.08478 30750 ft 417 kts 109°
2026-05-05 15:26 49.66760 13.17038 30739 ft 416 kts 109°
2026-05-05 15:26 49.65011 13.25519 30735 ft 417 kts 109°
2026-05-05 15:27 49.63234 13.34070 30731 ft 418 kts 109°
2026-05-05 15:27 49.61456 13.42626 30732 ft 419 kts 109°
2026-05-05 15:28 49.59684 13.51128 30742 ft 419 kts 109°
2026-05-05 15:28 49.57892 13.59662 30742 ft 420 kts 109°
2026-05-05 15:29 49.56091 13.68201 30745 ft 420 kts 109°
2026-05-05 15:29 49.54288 13.76759 30742 ft 420 kts 109°
2026-05-05 15:30 49.52480 13.85273 30742 ft 420 kts 109°
2026-05-05 15:30 49.50661 13.93790 30750 ft 420 kts 110°
2026-05-05 15:31 49.48833 14.02331 30750 ft 420 kts 110°
2026-05-05 15:31 49.47899 14.06666 30817 ft 433 kts 110°
2026-05-05 15:31 49.46942 14.11101 31023 ft 442 kts 110°
2026-05-05 15:31 49.45980 14.15555 31454 ft 445 kts 109°
2026-05-05 15:32 49.45004 14.20084 31978 ft 445 kts 109°
2026-05-05 15:32 49.44019 14.24652 32558 ft 444 kts 109°
2026-05-05 15:32 49.43059 14.29083 33106 ft 443 kts 109°
2026-05-05 15:32 49.42151 14.33258 33621 ft 442 kts 109°
2026-05-05 15:33 49.41120 14.37982 34224 ft 441 kts 109°
2026-05-05 15:33 49.40108 14.42601 34666 ft 442 kts 109°
2026-05-05 15:33 49.39928 14.43422 34703 ft 442 kts 109°
2026-05-05 15:34 49.39505 14.45349 34753 ft 441 kts 109°
2026-05-05 15:34 49.37599 14.54030 34786 ft 440 kts 109°
2026-05-05 15:35 49.35649 14.62909 34774 ft 440 kts 109°
2026-05-05 15:35 49.33674 14.71802 34775 ft 440 kts 110°
2026-05-05 15:36 49.31709 14.80648 34777 ft 440 kts 109°
2026-05-05 15:36 49.30386 14.86578 34774 ft 440 kts 110°
2026-05-05 15:37 49.27734 14.98375 34774 ft 439 kts 110°
2026-05-05 15:37 49.25746 15.07216 34771 ft 439 kts 110°
2026-05-05 15:38 49.23778 15.15949 34770 ft 439 kts 110°
2026-05-05 15:38 49.21768 15.24805 34769 ft 439 kts 110°
2026-05-05 15:39 49.19768 15.33566 34768 ft 439 kts 110°
2026-05-05 15:39 49.17736 15.42429 34773 ft 440 kts 110°
2026-05-05 15:40 49.15712 15.51247 34776 ft 440 kts 110°
2026-05-05 15:40 49.13690 15.60011 34781 ft 440 kts 110°
2026-05-05 15:41 49.11659 15.68775 34785 ft 440 kts 110°
2026-05-05 15:41 49.09603 15.77610 34788 ft 439 kts 110°
2026-05-05 15:42 49.07552 15.86361 34790 ft 439 kts 110°
2026-05-05 15:42 49.05418 15.95521 34792 ft 439 kts 110°
2026-05-05 15:43 49.03453 16.03819 34792 ft 439 kts 111°
2026-05-05 15:43 49.01324 16.12562 34791 ft 439 kts 111°
2026-05-05 15:44 48.99138 16.21197 34789 ft 438 kts 112°
2026-05-05 15:44 48.96869 16.29755 34788 ft 438 kts 113°
2026-05-05 15:45 48.95152 16.35918 34789 ft 438 kts 114°
2026-05-05 15:45 48.93748 16.40726 34781 ft 438 kts 112°
2026-05-05 15:46 48.92528 16.46572 34786 ft 439 kts 105°
2026-05-05 15:46 48.90101 16.58408 34773 ft 438 kts 116°
2026-05-05 15:46 48.88527 16.62387 34771 ft 436 kts 129°
2026-05-05 15:47 48.86024 16.65881 34765 ft 432 kts 150°
2026-05-05 15:47 48.84636 16.66904 34763 ft 430 kts 163°
2026-05-05 15:47 48.80727 16.67030 34676 ft 423 kts 202°
2026-05-05 15:48 48.75467 16.63244 34667 ft 423 kts 206°
2026-05-05 15:48 48.72634 16.61588 34780 ft 425 kts 193°
2026-05-05 15:48 48.70485 16.61317 34793 ft 430 kts 177°
2026-05-05 15:48 48.66884 16.62973 34805 ft 436 kts 149°
2026-05-05 15:49 48.64624 16.65986 34815 ft 439 kts 128°
2026-05-05 15:49 48.63233 16.70070 34807 ft 440 kts 108°
2026-05-05 15:49 48.62667 16.74596 34811 ft 440 kts 91°
2026-05-05 15:49 48.63098 16.79141 34799 ft 439 kts 68°
2026-05-05 15:50 48.64783 16.82876 34709 ft 436 kts 38°
2026-05-05 15:50 48.66987 16.86023 34632 ft 438 kts 49°
2026-05-05 15:50 48.68694 16.89761 34566 ft 440 kts 62°
2026-05-05 15:51 48.69567 16.92990 34526 ft 440 kts 74°
2026-05-05 15:51 48.73504 17.04056 34352 ft 444 kts 42°
2026-05-05 15:52 48.74676 17.05770 34374 ft 444 kts 45°